Location: Recife
(8.0585°S, 34.8848°W)
Time: 20:45:54
(UTC-03:00)

A-11 Canister half - Pass Details

Date: 20 April 2026
Orbit: 1515 x 1684 km, 47.2° (Epoch: 16 May)

Event Time Altitude Azimuth Distance (km) Brightness Sun altitude
Rises 14:52:52 0° 283° (WNW) 4,914 12.7 33.1°
Reaches altitude 10° 14:57:02 10° 269° (W) 3,940 12.4 32.2°
Maximum altitude 15:04:23 22° 222° (SW) 3,076 11.1 30.5°
Drops below altitude 10° 15:11:47 10° 174° (S) 3,937 11.0 28.7°
Sets 15:16:00 0° 159° (SSE) 4,910 11.3 27.7°
